Location: ??????
(55.2000°N, 38.3000°E)
Time: 09:00:49
(UTC+00:00)

Iridium 45 - Pass Details

Date: 15 November 2025
Orbit: 404 x 539 km, 86.4° (Epoch: 14 December)

Event Time Altitude Azimuth Distance (km) Brightness Sun altitude
Rises 02:31:56 0° 7° (N) 2,359 8.1 -20.7°
Reaches altitude 10° 02:34:32 10° 31° (NNE) 1,481 7.3 -20.3°
Drops below altitude 10° 02:38:38 10° 111° (ESE) 1,469 8.1 -19.7°
Enters shadow 03:46:03 -47° 354° (N) 9,977 11.1 -10.3°
Maximum altitude 04:11:19 42° 271° (W) 599 4.6 -7.0°
